Wisconsin Dells, Wisconsin, United States (53965)
Lat: 43.63N, Lon: 89.77W
Wx Zone: WIZ057
Local Info
Past Weather Observations for Today

NOTE: This archive is for the closest National Weather Service station to Wisconsin Dells. Information may differ from the station used for current weather conditions.

Click here for Long-term Archive

Time Weather Temperature Dewpoint Humidity Pressure Winds Precip Visibility
23:30
Clear
37°F / 3°C 27°F / -3°C 65% 29.95 in
(1014 mb)
NE 6.9 mph
(NE 11 kph)
- 10SM
23:10
Clear
37°F / 3°C 27°F / -3°C 65% 29.95 in
(1014 mb)
Calm - 10SM
22:50
Clear
37°F / 3°C 27°F / -3°C 65% 29.95 in
(1014 mb)
ENE 3.5 mph
(ENE 6 kph)
- 10SM
22:30
Clear
41°F / 5°C 27°F / -3°C 57% 29.95 in
(1014 mb)
Calm - 10SM
22:10
Clear
41°F / 5°C 27°F / -3°C 57% 29.95 in
(1014 mb)
Calm - 10SM
21:50
Clear
39°F / 4°C 27°F / -3°C 61% 29.95 in
(1014 mb)
Calm - 10SM
21:30
Clear
45°F / 7°C 25°F / -4°C 46% 29.95 in
(1014 mb)
Calm - 10SM
21:10
Clear
45°F / 7°C 25°F / -4°C 46% 29.95 in
(1014 mb)
Calm - 10SM
20:50
Clear
46°F / 8°C 25°F / -4°C 43% 29.95 in
(1014 mb)
Calm - 10SM
20:30
Clear
48°F / 9°C 25°F / -4°C 40% 29.92 in
(1013 mb)
W 3.5 mph
(W 6 kph)
- 10SM
20:10
Clear
48°F / 9°C 27°F / -3°C 43% 29.92 in
(1013 mb)
W 3.5 mph
(W 6 kph)
- 10SM
19:50
Clear
48°F / 9°C 27°F / -3°C 43% 29.92 in
(1013 mb)
SSW 4.6 mph
(SSW 7 kph)
- 10SM
19:30
Clear
52°F / 11°C 25°F / -4°C 35% 29.92 in
(1013 mb)
W 3.5 mph
(W 6 kph)
- 10SM
19:10
Clear
54°F / 12°C 25°F / -4°C 33% 29.92 in
(1013 mb)
SSW 3.5 mph
(SSW 6 kph)
- 10SM
18:50
Clear
54°F / 12°C 27°F / -3°C 35% 29.92 in
(1013 mb)
Calm - 10SM
18:30
Clear
55°F / 13°C 27°F / -3°C 33% 29.89 in
(1012 mb)
W 3.5 mph
(W 6 kph)
- 10SM
18:10
Clear
55°F / 13°C 27°F / -3°C 33% 29.89 in
(1012 mb)
W 4.6 mph
(W 7 kph)
- 10SM
17:30
Clear
59°F / 15°C 27°F / -3°C 29% 29.89 in
(1012 mb)
NW 8.1 mph
(NW 13 kph)
- 10SM
17:10
Clear
59°F / 15°C 27°F / -3°C 29% 29.89 in
(1012 mb)
W 11.5 mph
(W 19 kph)
- 10SM
16:50
Clear
61°F / 16°C 28°F / -2°C 29% 29.89 in
(1012 mb)
WNW 8.1 mph
(WNW 13 kph)
- 10SM
16:30
Clear
61°F / 16°C 27°F / -3°C 27% 29.89 in
(1012 mb)
W 13.8 mph
(W 22 kph)
- 10SM
16:10
Clear
61°F / 16°C 28°F / -2°C 29% 29.89 in
(1012 mb)
W 13.8 mph
(W 22 kph)
- 10SM
15:50
Clear
61°F / 16°C 27°F / -3°C 27% 29.89 in
(1012 mb)
W 12.7 mph
(W 20 kph)
- 10SM
15:30
Clear
61°F / 16°C 28°F / -2°C 29% 29.89 in
(1012 mb)
W 12.7 mph
(W 20 kph)
- 10SM
15:10
Partly Cloudy
61°F / 16°C 28°F / -2°C 29% 29.89 in
(1012 mb)
WNW 13.8 mph
(WNW 22 kph)
- 10SM
14:50
Partly Cloudy
61°F / 16°C 28°F / -2°C 29% 29.89 in
(1012 mb)
W 16.1 mph
(W 26 kph)
- 10SM
14:30
Partly Cloudy
59°F / 15°C 30°F / -1°C 34% 29.89 in
(1012 mb)
NW 10.4 mph
(NW 17 kph)
- 10SM
14:10
Partly Cloudy
61°F / 16°C 30°F / -1°C 31% 29.89 in
(1012 mb)
NW 12.7 mph
(NW 20 kph)
- 10SM
13:50
Partly Cloudy
57°F / 14°C 32°F / 0°C 39% 29.89 in
(1012 mb)
NW 11.5 mph
(NW 19 kph)
- 10SM
13:30
Partly Cloudy
59°F / 15°C 32°F / 0°C 36% 29.89 in
(1012 mb)
W 10.4 mph
(W 17 kph)
- 10SM
13:10
Mostly Cloudy
57°F / 14°C 34°F / 1°C 41% 29.89 in
(1012 mb)
SSW 12.7 mph
(SSW 20 kph)
- 10SM
12:50
Partly Cloudy
55°F / 13°C 36°F / 2°C 47% 29.92 in
(1013 mb)
W 6.9 mph
(W 11 kph)
- 10SM
12:30
Partly Cloudy
55°F / 13°C 36°F / 2°C 47% 29.92 in
(1013 mb)
WNW 5.8 mph
(WNW 9 kph)
- 10SM
12:10
Clear
54°F / 12°C 37°F / 3°C 54% 29.92 in
(1013 mb)
W 10.4 mph
(W 17 kph)
- 10SM
11:50
Clear
54°F / 12°C 37°F / 3°C 54% 29.92 in
(1013 mb)
W 6.9 mph
(W 11 kph)
- 10SM
11:30
Partly Cloudy
50°F / 10°C 36°F / 2°C 58% 29.92 in
(1013 mb)
Calm - 10SM
11:10
Partly Cloudy
48°F / 9°C 36°F / 2°C 62% 29.95 in
(1014 mb)
Calm - 10SM
10:50
Partly Cloudy
46°F / 8°C 36°F / 2°C 66% 29.95 in
(1014 mb)
Calm - 10SM
10:30
Partly Cloudy
45°F / 7°C 37°F / 3°C 76% 29.95 in
(1014 mb)
SSW 4.6 mph
(SSW 7 kph)
- 10SM
10:10
Partly Cloudy
41°F / 5°C 41°F / 5°C 100% 29.95 in
(1014 mb)
SSW 4.6 mph
(SSW 7 kph)
- 10SM
09:50
Mostly Cloudy
39°F / 4°C 39°F / 4°C 100% 29.95 in
(1014 mb)
SSW 4.6 mph
(SSW 7 kph)
- 10SM
09:30
Overcast
37°F / 3°C 37°F / 3°C 100% 29.95 in
(1014 mb)
Calm - 10SM
09:10
Overcast
Fog And Mist
37°F / 3°C 37°F / 3°C 100% 29.95 in
(1014 mb)
W 3.5 mph
(W 6 kph)
- 5SM
08:50
Overcast
Fog And Mist
37°F / 3°C 36°F / 2°C 93% 29.95 in
(1014 mb)
SSW 4.6 mph
(SSW 7 kph)
- 1 1/4SM
08:30
Overcast
Fog And Mist
37°F / 3°C 36°F / 2°C 93% 29.95 in
(1014 mb)
SSW 4.6 mph
(SSW 7 kph)
- 1SM
08:10
Overcast
Fog
36°F / 2°C 36°F / 2°C 100% 29.95 in
(1014 mb)
NW 3.5 mph
(NW 6 kph)
- 1/2SM
07:50
Overcast
Fog
36°F / 2°C 36°F / 2°C 100% 29.92 in
(1013 mb)
W 3.5 mph
(W 6 kph)
- 1/4SM
07:30
Overcast
Fog
36°F / 2°C 34°F / 1°C 93% 29.92 in
(1013 mb)
WNW 3.5 mph
(WNW 6 kph)
- 1/4SM
07:10
Overcast
Fog
36°F / 2°C 34°F / 1°C 93% 29.92 in
(1013 mb)
W 6.9 mph
(W 11 kph)
- 1/4SM
06:50
Overcast
Fog
36°F / 2°C 34°F / 1°C 93% 29.92 in
(1013 mb)
WNW 3.5 mph
(WNW 6 kph)
- M1/4SM
06:30
Overcast
Fog
36°F / 2°C 34°F / 1°C 93% 29.89 in
(1012 mb)
WNW 4.6 mph
(WNW 7 kph)
- 1/4SM
06:10
Overcast
Fog
36°F / 2°C 34°F / 1°C 93% 29.89 in
(1012 mb)
WNW 4.6 mph
(WNW 7 kph)
- M1/4SM
05:50
Overcast
Fog
34°F / 1°C 34°F / 1°C 100% 29.89 in
(1012 mb)
NW 3.5 mph
(NW 6 kph)
- M1/4SM
05:30
Overcast
Fog
34°F / 1°C 34°F / 1°C 100% 29.89 in
(1012 mb)
NW 3.5 mph
(NW 6 kph)
- M1/4SM
05:10
Overcast
Fog
34°F / 1°C 34°F / 1°C 100% 29.86 in
(1011 mb)
NW 5.8 mph
(NW 9 kph)
- M1/4SM
04:50
Overcast
Fog
34°F / 1°C 34°F / 1°C 100% 29.86 in
(1011 mb)
NW 4.6 mph
(NW 7 kph)
- M1/4SM
04:30
Overcast
Fog
34°F / 1°C 34°F / 1°C 100% 29.83 in
(1010 mb)
NW 5.8 mph
(NW 9 kph)
- M1/4SM
04:10
Overcast
Fog
36°F / 2°C 34°F / 1°C 93% 29.83 in
(1010 mb)
Calm - M1/4SM
03:50
Overcast
Fog
36°F / 2°C 34°F / 1°C 93% 29.83 in
(1010 mb)
Calm - 1/4SM
03:30
Overcast
Fog
36°F / 2°C 34°F / 1°C 93% 29.83 in
(1010 mb)
NW 3.5 mph
(NW 6 kph)
- 1/4SM
03:10
Overcast
Fog
32°F / 0°C 32°F / 0°C 100% 29.83 in
(1010 mb)
Calm - 1/2SM
02:50
Obscured
Fog And Mist
34°F / 1°C 32°F / 0°C 93% 29.83 in
(1010 mb)
NW 3.5 mph
(NW 6 kph)
- 1SM
02:30
Obscured
Fog And Mist
36°F / 2°C 34°F / 1°C 93% 29.83 in
(1010 mb)
Calm - 1SM
02:10
Clear
36°F / 2°C 36°F / 2°C 100% 29.83 in
(1010 mb)
Calm - 7SM
01:50
Mostly Cloudy
37°F / 3°C 36°F / 2°C 93% 29.8 in
(1009 mb)
Calm - 7SM
01:30
Overcast
37°F / 3°C 36°F / 2°C 93% 29.83 in
(1010 mb)
NNE 3.5 mph
(NNE 6 kph)
- 10SM
01:10
Overcast
39°F / 4°C 36°F / 2°C 87% 29.8 in
(1009 mb)
NE 10.4 mph
(NE 17 kph)
- 10SM
00:50
Mostly Cloudy
39°F / 4°C 37°F / 3°C 93% 29.8 in
(1009 mb)
NE 10.4 mph
(NE 17 kph)
- 10SM
00:30
Partly Cloudy
39°F / 4°C 36°F / 2°C 87% 29.8 in
(1009 mb)
NE 8.1 mph
(NE 13 kph)
- 10SM
00:10
Mostly Cloudy
41°F / 5°C 36°F / 2°C 81% 29.8 in
(1009 mb)
NNE 6.9 mph
(NNE 11 kph)
- 10SM
Time Weather Temperature Dewpoint Humidity Pressure Winds Precip Visibility


Weather for websites

WeatherForYou.com, LLC is not responsible for any damages or problems caused by this service. Current weather conditions are obtained from the closest station including government and personal stations which may have varying degrees of accuracy. Weather forecasts are derived from the NOAA NDFD. Like all things, this site belongs to Jesus Christ... He just trusts me to maintain it. If you have any questions or comments email webmaster@weatherforyou.com

Copyright © 2015, WeatherForYou.com LLC. All rights reserved.